Regional Weather Roundup
Issued by NWS

Home | Current Version | Previous Version | Text Only | Print | Product List | Glossary On
Versions: 1 2 3 4 5 6 7 8 9 10 11 12 13 14 15 16 17 18 19 20 21 22 23 24 25 26 27 28 29 30 31 32 33 34 35 36 37 38 39 40 41 42 43 44 45 46 47 48 49 50
000
ASUS44 KEWX 281711
RWRTX
SOUTH TEXAS REGIONAL WEATHER ROUNDUP
NATIONAL WEATHER SERVICE AUSTIN/SAN ANTONIO TX
1200 PM CDT SAT MAY 28 2016

NOTE: "FAIR" INDICATED FEW OR NO CLOUDS BELOW 12,000 FEET WITH NO
SIGNIFICANT WEATHER AND/OR OBSTRUCTIONS TO VISIBILITY.

* - THESE STATIONS ARE NOT NWS OR FAA STATIONS...AND ARE NOT SUBJECT
    TO NWS AND FAA QUALITY CONTROL.

TXZ171-172-183>190-281800-
TEXAS HILL COUNTRY AND EDWARDS PLATEAU

CITY           SKY/WX    TMP DP  RH WIND       PRES   REMARKS
JUNCTION       MOSUNNY   83  68  60 S12       29.98R
*LLANO         PTSUNNY   84  73  70 SW12      30.00S HX  91
BURNET         MOSUNNY   82  71  69 S14G22    30.00S
*HORSESHOE BAY PTSUNNY   83  72  70 S9G17     29.97F
*KERRVILLE     CLOUDY    76  73  88 SE9       30.00S
*FREDERICKSBRG CLOUDY    77  71  80 S12       30.00S
*ROCKSPRINGS   PTSUNNY   79  72  78 SE14      30.03S
*BOERNE STAGE  CLOUDY    79  72  78 S10G16    30.00S
*CASTROVILLE   CLOUDY    83  73  71 SE6       29.97S
HONDO          PTSUNNY   85  75  72 SE9       29.96F HX  93
*UVALDE        PTSUNNY   84  74  72 SE7       29.95S HX  91
DEL RIO        CLOUDY    82  72  71 S14       29.93R
LAUGHLIN AFB   PTSUNNY   81  74  79 S10       29.93S
CARRIZO SPRGS  PTSUNNY   88  73  62 S16       29.90S HX  96
*EAGLE PASS    CLOUDY    86  73  66 S10       29.93R HX  93
$$

TXZ173-191>194-202-209-217>225-228-281800-
CENTRAL AND SOUTH CENTRAL TEXAS

CITY           SKY/WX    TMP DP  RH WIND       PRES   REMARKS
GEORGETOWN     NOT AVBL
AUSTIN/BERGSTM PTSUNNY   83  75  77 S12       29.95F HX  90
AUSTIN/MABRY   CLOUDY    82  75  79 VRB5      29.97S
*AUSTIN/EXEC   PTSUNNY   82  75  78 SW12G20   29.97S
*LAGO VISTA    PTSUNNY   82  73  72 SW10G21   29.98F
SAN MARCOS     MOSUNNY   86  75  70 S14G20    29.96S FOG     HX  95
NEW BRAUNFELS  PTSUNNY   86  75  69 S13       29.95R HX  95
RANDOLPH AFB   MOSUNNY   86  78  76 SE12      29.95S HX  98
PT SAN ANTONIO MOSUNNY   86  75  71 S13       29.94S HX  95
SAN ANTONIO    PTSUNNY   85  73  67 S14       29.96S HX  91
STINSON FIELD  PTSUNNY   88  73  61 SE9       29.93R HX  95
*PLEASANTON    PTSUNNY   87  72  61 SE9       29.93S HX  93
*LA GRANGE       N/A     86  76  72 SW12      29.94F HX  96
*GIDDINGS      CLOUDY    84  73  69 S15       30.00S
*GONZALES      PTSUNNY   85  76  73 S12G18    29.95S HX  94
$$

TXZ163>164-176>182-195>201-210>213-226-227-235-281800-
SOUTHEAST TEXAS

CITY           SKY/WX    TMP DP  RH WIND       PRES   REMARKS
COLLEGE STN    SUNNY     81  74  79 S8        29.97S
*BRYAN         CLOUDY    82  75  79 SW8       29.99R
*CALDWELL      PTSUNNY   81  75  83 S5        30.00S
*CROCKETT      MOSUNNY   82  73  74 SW8       30.01S
*BRENHAM       CLOUDY    85  74  68 S10       29.98S HX  93
HUNTSVILLE     SUNNY     83  72  69 SW9       29.98R
CONROE         SUNNY     83  71  67 S9        29.98R
HOUSTON BUSH   MOSUNNY   83  70  64 S9        29.97S
HOUSTON HOBBY  MOSUNNY   85  71  63 S9        29.97R HX  90
*HOUSTON SW AP SUNNY     84  69  60 S8        29.98S
PEARLAND       SUNNY     87  68  52 SW8       29.99R HX  90
HOUSTON HOOKS  SUNNY     84  71  65 S12       29.97S
ELLINGTON FLD  NOT AVBL
SUGAR LAND     SUNNY     84  71  65 S14       29.97R
*HOUSTON EXEC  SUNNY     84  73  70 S12       29.99R HX  91
*CLEVELAND MUN SUNNY     84  74  71 SW5       29.99R HX  91
*WHARTON       SUNNY     86  73  65 S14       29.98R HX  93
*COLUMBUS      PTSUNNY   85  74  70 S10G20    29.96S HX  92
*EAGLE LAKE    SUNNY     86  74  68 S15G21    29.97R HX  94
$$

TXZ214>216-236>238-281800-
THE UPPER TEXAS COAST

CITY           SKY/WX    TMP DP  RH WIND       PRES   REMARKS
*ORANGE        SUNNY     84  63  49 S7        30.00R
PORT ARTHUR    SUNNY     86  64  47 S9        29.98R
GALVESTON      SUNNY     82  74  76 S10       29.99R
ANGLETON       SUNNY     86  70  58 S10       29.97R HX  90
*BAY CITY      SUNNY     85  74  68 S10       29.97S HX  92
PALACIOS       SUNNY     85  72  65 S14       29.97R HX  91
$$

TXZ229>234-239>247-281800-
TEXAS COASTAL BEND AND RIO GRANDE PLAINS

CITY           SKY/WX    TMP DP  RH WIND       PRES   REMARKS
VICTORIA       PTSUNNY   87  74  64 S20       29.96S HX  95
*BEEVILLE      CLOUDY    87  78  74 S17       29.93S HX  98
ROCKPORT       SUNNY     86  73  65 SE15G26   29.93S HX  93
*PORT ARANSAS  SUNNY     85  76  73 SE14G24   29.94S HX  95
*PORT LAVACA   MOSUNNY   85  75  71 S17       29.96S HX  93
*INGLESIDE     MOSUNNY   75  64  69 SE16G25   29.94R
CORPUS CHRISTI PTSUNNY   84  76  76 SE20G25   29.93S HX  93
CORPUS NAS     PTSUNNY   87  77  72 SE22G31   29.93S HX  99
*ROBSTOWN      CLOUDY    86  77  75 SE13G23   29.93R HX  97
ALICE          PTSUNNY   88  74  63 SE17G28   29.91R HX  96
KINGSVILLE NAS PTSUNNY   87  79  76 SE20G28   29.92R HX 101
COTULLA        MOSUNNY   90  72  55 S13       29.91S HX  97
*FAITH RANCH     N/A    N/A N/A N/A MISG        N/A
LAREDO         PTSUNNY   90  75  61 SE16G23   29.89S HX 100
$$

TXZ248>255-281800-
DEEP SOUTH TEXAS

CITY           SKY/WX    TMP DP  RH WIND       PRES   REMARKS
BROWNSVILLE    PTSUNNY   86  75  69 SE15      29.92S HX  95
PORT ISABEL    CLOUDY    87  76  69 SE23G30   29.90F HX  97
*SOUTH PADRE     N/A     86  77  74 SE14      29.92S HX  97
HARLINGEN      MOSUNNY   91  75  59 SE22      29.89S HX 101
*HEBBRONVILLE  PTSUNNY   88  72  59 SE14G23   29.92S HX  95
MCALLEN        CLOUDY    90  76  63 SE18G25   29.89S HX 101
*WESLACO       MOSUNNY   91  74  58 SE17      29.88S HX 100
FALFURRIAS     PTSUNNY   90  74  59 SE14G23   29.90S HX  98
EDINBURG       PTSUNNY   91  73  55 SE16      29.89S HX 100
*ZAPATA        PTSUNNY   88  73  61 SE10G23   29.87S HX  95
$$

TXZ213>215-236>238-242>244-246-247-251-254-255-281800-
CMAN STATIONS

STATION/POSITION TIME  TEMP    WIND        PRES    WAVE
                       AIR SEA DIR/SP/G            HT/PER
                 (UTC) (F)     (DEG/KT/KT) (MB)    (FT/S)
SABINE PASS      1600   81 80  190/  7/  9 1016.4
SEA RIM ST PARK  1700   80     180/  6/  8 1016.1
NORTH JETTY/GLS  1600   81 80                N/A
EAGLE POINT      1600   80 72  200/  7/  8 1014.9
MORGANS POINT    1600   80 73  130/  5/  7 1015.0
MISSION/ARANSAS  1600   82                 1015.0
PORT O`CONNOR    1600          160/ 16/ 21   N/A
PORT ARANSAS     1700   81 82  140/ 20/ 22 1014.2
MALAQUITE BEACH  1600   81 82  130/ 20/ 25 1013.5
BAFFIN BAY       1600   82 84  140/ 17/ 23 1013.5
PORT ISABEL      1600   83 80  160/ 12/ 16 1013.0
$$

GMZ080-GMZ150>470-281800-
OFFSHORE BUOY REPORTS

STATION/POSITION TIME  TEMP    WIND        PRES    WAVE
                       AIR SEA DIR/SP/G            HT/PER
                 (UTC) (F)     (DEG/KT/KT) (MB)    (FT/S)
20 E GALVESTON   1650   79 81  200/  2/  4 1015.1    4/ 7
90 E PT ARANSAS  1650   81 80  140/ 16/ 19 1014.2    6/ 7
35 NE PT MANSFLD 1650   81 81  140/ 17/ 21 1012.9    9/ 8
200 E PT ISABEL  1650                        N/A     7/ 7
$$




USA.gov is the U.S. government's official web portal to all federal, state and local government web resources and services.